#timestamp,LO_Frequency,Hit,StdDev 
1683723615.8,286047000.6,N
1683723635.7,286047000.8,N
1683723655.5,286047000.7,N
1683723675.3,286046998.9,N
1683723695.2,286046996.8,N
1683723715.0,286047000.7,N
1683723715.9,286047000.7,N
1683723735.8,286046999.8,N
1683723755.6,286046999.7,N
1683723775.4,286046999.9,N
1683723795.3,286047000.6,N
1683723815.1,286046998.5,N
1683723835.8,286046999.7,N
1683723855.7,286047002.1,N
1683723875.5,286047001.5,N
1683723895.4,286046999.9,N
1683723915.2,286046999.8,N
1683723935.0,286047002.3,N
1683723935.9,286047002.3,N
1683723955.8,286047002.2,N
1683723975.6,286046999.7,N
1683723995.4,286047000.4,N
1683724015.3,286046998.1,N
1683724035.1,286047000.7,N
1683724055.9,286047000.6,N
1683724075.7,286047000.2,N
1683724095.5,286046998.1,N
1683724115.4,286047001.0,N
1683724135.2,286046998.2,N
1683724155.0,286047000.0,N
1683724155.9,286047000.0,N
1683724175.8,286047000.9,N
1683724195.6,286047000.5,N
1683724215.4,286047000.3,N
1683724235.3,286047002.7,N
1683724255.1,286047002.4,N
1683724275.9,286046999.9,N
1683724295.7,286047002.8,N
1683724315.5,286047001.6,N
1683724335.4,286047002.0,N
1683724355.2,286047000.1,N
1683724375.1,286046999.8,N
1683724376.0,286046999.8,N
1683724395.8,286047001.6,N
1683724415.6,286047004.0,Y
1683724435.5,286047004.0,P
1683724455.3,286047001.3,N
1683724475.2,286047001.8,N
1683724495.9,286047001.9,N
1683724515.7,286047002.8,N
1683724535.6,286047002.3,N
1683724555.4,286047002.3,N
1683724575.2,286047000.3,N
1683724595.1,286046999.9,N
1683724596.0,286046999.9,N
1683724615.8,286047002.4,N
1683724635.7,286047002.6,N
1683724655.5,286047002.3,N
1683724675.3,286047002.2,N
1683724695.2,286047001.3,N
1683724715.0,286047002.4,N
1683724715.9,286047002.4,N
1683724735.7,286047002.1,N
1683724755.6,286047001.6,N
1683724775.4,286047003.9,Y
1683724795.3,286047002.6,P
1683724815.1,286047001.8,P
1683724816.0,286047001.8,P
1683724835.8,286047002.1,Y
1683724855.7,286046998.5,P
1683724875.5,286046999.9,N
1683724895.3,286047001.9,N
1683724915.2,286047002.5,N
1683724935.0,286047002.5,N
1683724935.9,286047002.5,N
1683724955.8,286046999.9,N
1683724975.6,286046999.9,N
1683724995.4,286047002.3,N
1683725015.3,286047001.3,N
1683725035.1,286047002.1,N
1683725055.8,286047000.2,N
1683725075.7,286047000.5,N
1683725095.5,286046998.2,N
1683725115.4,286047000.6,N
1683725135.2,286046998.5,N
1683725155.0,286047000.6,N
1683725155.9,286047000.6,N
1683725175.8,286046998.1,N
1683725195.6,286046999.0,N
1683725215.4,286047000.6,N
1683725235.3,286047011.9,Y
1683725255.1,286046998.5,P
1683725275.9,286046998.1,N
1683725295.7,286047000.3,N
1683725315.5,286047000.5,N
1683725335.4,286047001.2,N
1683725355.2,286047000.7,N
1683725375.0,286046998.2,N
1683725376.0,286046998.2,N
1683725395.8,286047001.7,N
1683725415.6,286047000.1,N
1683725435.5,286047002.7,N
1683725455.3,286047000.8,N
1683725475.1,286046998.6,N
1683725495.9,286046996.7,N
1683725515.7,286046997.7,N
1683725535.5,286046999.3,N
1683725555.4,286047001.2,N
1683725575.2,286046998.2,N
1683725595.1,286047001.2,N
1683725596.0,286047001.2,N
1683725615.8,286047001.1,N
1683725635.6,286046998.4,N
1683725655.5,286046999.5,N
1683725675.3,286046997.1,N
1683725695.2,286046999.1,N
1683725715.9,286046998.1,N
1683725735.7,286047000.3,N
1683725755.6,286047000.8,N
1683725775.4,286046998.3,N
1683725795.2,286046998.8,N
1683725815.1,286046999.3,N
1683725816.0,286046999.3,N
1683725835.8,286046998.6,N
1683725855.7,286047000.0,N
1683725875.5,286047002.5,N
1683725895.3,286047000.6,N
1683725915.2,286047000.5,N
1683725935.9,286047000.6,N
1683725955.7,286046998.5,N
1683725975.6,286046997.0,N
1683725995.4,286046996.5,N
1683726015.3,286046997.3,N
1683726035.1,286046996.9,N
1683726036.0,286046996.9,N
1683726055.8,286046999.6,N
1683726075.7,286046999.1,N
1683726095.5,286046997.8,N
1683726115.3,286046997.0,N
1683726135.2,286046992.7,Y
1683726155.0,286046988.6,P
1683726155.9,286046988.6,N
1683726175.8,286046991.6,N
1683726225.6,286046991.5,E
1683726235.5,286046996.1,N
1683726255.4,286047002.7,P
1683726275.2,286047000.2,N
1683726295.1,286047000.9,N
1683726296.0,286047000.9,N
1683726315.8,286047000.7,N
1683726335.6,286046999.9,N
1683726355.5,286047002.6,N
1683726375.3,286047000.2,N
1683726395.1,286046998.6,N
1683726415.9,286046998.6,N
1683726435.7,286047000.9,N
1683726455.6,286046998.8,N
1683726475.4,286046998.2,N
1683726495.2,286047002.7,N
1683726515.1,286046999.9,N
1683726516.0,286046999.9,N
1683726535.8,286047001.8,N
1683726555.6,286047001.4,N
1683726575.5,286047004.4,N
1683726595.3,286047003.9,N
1683726615.2,286047005.4,N
1683726635.9,286047003.8,N
1683726655.7,286047005.6,N
1683726675.6,286047004.0,N
1683726695.4,286047006.0,N
1683726715.2,286047003.8,N
1683726735.1,286047002.9,N
1683726736.0,286047002.9,N
1683726755.8,286047006.0,N
1683726775.7,286047004.0,N
1683726795.5,286047004.4,N
1683726815.3,286047001.5,N
1683726835.2,286047004.4,N
1683726855.0,286047002.1,N
1683726855.9,286047002.1,N
1683726875.7,286047002.0,N
1683726895.6,286047001.4,N
1683726915.4,286047001.9,N
1683726935.3,286047000.0,N
1683726955.1,286046998.2,N
1683726956.0,286046998.2,N
1683726975.8,286046999.5,N
1683726995.7,286046997.1,N
1683727015.5,286046999.5,N
1683727035.3,286046999.3,N
1683727055.2,286046999.4,N
1683727075.0,286046997.2,N
1683727075.9,286046997.2,N
1683727095.8,286046998.1,N
1683727115.6,286046998.9,N
1683727135.4,286046998.8,N
1683727155.3,286046998.3,N
1683727175.1,286046997.0,N
1683727195.8,286046997.2,N
